Regional Weather Roundup
Issued by NWS

Home | Current Version | Previous Version | Text Only | Print | Product List | Glossary On
Versions: 1 2 3 4 5 6 7 8 9 10 11 12 13 14 15 16 17 18 19 20 21 22 23 24 25 26 27 28 29 30 31 32 33 34 35 36 37 38 39 40 41 42 43 44 45 46 47 48 49 50
000
ASUS43 KDTX 030501
RWRMI
MICHIGAN HOURLY REGIONAL WEATHER ROUNDUP
NATIONAL WEATHER SERVICE DETROIT/PONTIAC MI
100 AM EDT WED JUN 03 2015

NOTE: "FAIR" INDICATES FEW OR NO CLOUDS BELOW 12,000 FEET WITH NO
SIGNIFICANT WEATHER AND/OR OBSTRUCTION TO VISIBILITY.

MIZ047>049-052>055-059>063-066>070-074>076-081>083-030600-
SOUTHEAST LOWER MICHIGAN

CITY           SKY/WX    TMP DP  RH WIND       PRES   REMARKS
ADRIAN         CLEAR     49  46  90 NE7       30.16F
ALMA           CLEAR     54  45  72 CALM      30.14S
ANN ARBOR      CLEAR     43  42  97 CALM      30.16S
BAD AXE        CLEAR     45  35  68 CALM      30.17F
CARO           CLEAR     48  42  79 CALM      30.15F
DETROIT        PTCLDY    57  44  62 CALM      30.17R
GROSSE ILE     CLEAR     55  46  71 CALM      30.14S
HILLSDALE      CLEAR     54  46  74 E8        30.13F
HOWELL         CLEAR     51  48  90 SE5       30.15F

CITY           SKY/WX    TMP DP  RH WIND       PRES   REMARKS
JACKSON        CLEAR     54  45  71 SE3       30.15F
LAMBERTVILLE   CLEAR     52  46  82 CALM      30.15S
LAPEER         FAIR      47  42  82 CALM      30.17F
MASON          CLEAR     49  45  84 SE5       30.15S
MONROE         CLEAR     52  46  82 CALM      30.14S
MT. CLEMENS    CLEAR     53  44  73 NW5       30.14S
PORT HOPE        N/A     50  35  56 S7        30.15F
PORT HURON     CLEAR     45  45 100 CALM      30.18S
TRI CITIES     CLEAR     54  46  74 SE8       30.14F
MIDLAND        FAIR      47  44  91 CALM      30.13F
TROY           CLEAR     58  47  69 E3        30.18S
SAGINAW HB     CLEAR     54  48  82 SE8       30.14F
$$
MIZ043>046-050>051-056>058-064>065-071>073-077>080-030600-
SOUTHWEST LOWER MICHIGAN

CITY           SKY/WX    TMP DP  RH WIND       PRES   REMARKS
BATTLE CREEK   CLEAR     55  44  66 S5        30.14F
BENTON HARBOR  CLEAR     51  47  86 SE6       30.11S
BIG RAPIDS     CLEAR     50  44  79 CALM      30.12S
COLDWATER      CLEAR     53  42  67 E3        30.14S
FREMONT        FAIR      55  43  64 E3        30.11S
HOLLAND        CLEAR     52  46  80 CALM      30.13R
GRAND RAPIDS   CLEAR     54  50  86 S6        30.12S
IONIA          FAIR      55  48  76 S6        30.12S
KALAMAZOO      CLEAR     57  44  62 S5        30.13F
LUDINGTON      PTCLDY    46  41  85 CALM      30.11F
MARSHALL       CLEAR     54  44  69 CALM      30.13F
MOUNT PLEASANT CLEAR     51  43  74 CALM      30.13S
MUSKEGON       CLEAR     55  46  71 CALM      30.11S
SOUTH HAVEN    CLEAR     51  46  82 CALM      30.12S
$$
MIZ016>042-030600-
NORTHERN LOWER MICHIGAN

CITY           SKY/WX    TMP DP  RH WIND       PRES   REMARKS
ALPENA         CLEAR     46  35  65 CALM      30.14S
BEAVER ISLAND  CLEAR     42  37  83 CALM      30.11S
BELLAIRE       CLEAR     44  42  92 CALM      30.12F
CADILLAC       CLEAR     52  43  73 S3        30.13S
CHARLEVOIX     CLEAR     49  39  68 CALM      30.14S
FRANKFORT      CLEAR     45  35  69 CALM      30.11S
GAYLORD        CLEAR     52  41  66 SE3       30.13S
GRAYLING       CLEAR     50  39  66 CALM      30.14S
HARBOR SPRINGS CLEAR     46  43  88 CALM      30.11F
HOUGHTON LAKE  CLEAR     50  35  56 SE6       30.14S
MANISTEE       CLEAR     45  39  81 E6        30.11F
OSCODA         CLEAR     42  38  88 CALM      30.15S
PELLSTON       CLEAR     42  40  92 CALM      30.11F
ROGERS CITY    CLEAR     55  37  52 S10       30.13S
TRAVERSE CITY  CLEAR     47  41  80 CALM      30.11S
$$
MIZ007>008-015-030600-
EASTERN UPPER MICHIGAN

CITY           SKY/WX    TMP DP  RH WIND       PRES   REMARKS
KINROSS        CLEAR     48  34  57 SE6       30.10S
MACKINAC ISLAN CLEAR     47  41  77 SW6       30.10S
NEWBERRY       CLEAR     48  34  58 S7        30.09S
S. S. MARIE    CLEAR     50  35  56 E3        30.10F
$$
MIZ004>006-011>014-085-030600-
CENTRAL UPPER MICHIGAN

CITY           SKY/WX    TMP DP  RH WIND       PRES   REMARKS
MANISTIQUE     CLEAR     46  38  75 S5        30.09S
ESCANABA       CLEAR     52  39  62 S6        30.07S
MENOMINEE      CLEAR     54  37  54 S7        30.06S
SAWYER-GWINN   PTCLDY    51  38  62 S8        30.06R
$$
MIZ001>003-009>011-084-030600-
WESTERN UPPER MICHIGAN

CITY           SKY/WX    TMP DP  RH WIND       PRES   REMARKS
IRON MOUNTAIN  CLEAR     53  35  50 S6        30.05R
HOUGHTON       MOCLDY    52  41  66 CALM      29.98R
COPPER HARBOR    N/A     55  41  59 SW10G17   29.96S
IRONWOOD       CLOUDY    64  39  39 S10G16    29.93F
$$

ABBREVIATIONS USED IN REMARKS
   TC - TEMPERATURE IN CELSIUS
  WCI - WIND CHILL INDEX
   HX - HEAT INDEX
  VSB - VISIBILITY



USA.gov is the U.S. government's official web portal to all federal, state and local government web resources and services.